EW1979 Weather Reports


Display with metric or nautical units.
time (UTC)temp
F
wind
direction
speed
MPH
gust
MPH
rain 1hr
in
rain 24hr
in
rain mn
in
humidity
%
barometer
mb
20260507163102 57 22 0.0 0.0 0.00 0.00 0.00 72 1015.5
20260507154504 56 355 0.0 0.0 0.00 0.00 0.00 56 1014.9
20260507153114 56 37 0.0 0.0 0.00 0.00 0.00 47 1015.0
20260507150007 55 355 0.0 0.0 0.00 0.00 0.00 30 1015.6
20260507144505 55 14 0.0 0.0 0.00 0.00 0.00 26 1015.7
20260507143008 55 13 0.0 0.0 0.00 0.00 0.00 28 1015.4
20260507141502 55 24 0.0 0.0 0.00 0.00 0.00 29 1015.4
20260507140002 55 5 0.0 0.0 0.00 0.00 0.00 31 1015.2
20260507134502 55 5 0.0 0.0 0.00 0.00 0.00 36 1015.5
20260507133103 56 341 0.0 0.0 0.00 0.00 0.00 40 1015.1
20260507131503 56 360 0.0 0.0 0.00 0.00 0.00 45 1015.2
20260507130008 56 5 0.0 0.0 0.00 0.00 0.00 50 1015.3
20260507124621 56 11 0.0 0.0 0.00 0.00 0.00 55 1014.2
20260507123110 56 5 0.0 0.0 0.00 0.00 0.00 60 1014.2
20260507121506 57 11 0.0 0.0 0.00 0.00 0.00 62 1014.2
20260507111507 57 5 0.0 0.0 0.00 0.00 0.00 68 1013.3
20260507110003 57 16 0.0 0.0 0.00 0.00 0.00 68 1013.0
20260507104605 58 5 0.0 0.0 0.00 0.00 0.00 68 1012.5
20260507103115 58 15 0.0 0.0 0.00 0.00 0.00 67 1012.6
20260507101503 58 11 0.0 0.0 0.00 0.00 0.00 68 1012.6
20260507093003 59 9 0.0 0.0 0.00 0.00 0.00 65 1012.1
20260507091509 59 5 0.0 0.0 0.00 0.00 0.00 65 1012.1
20260507084603 59 9 0.0 0.0 0.00 0.00 0.00 63 1011.3
20260507081504 59 11 0.0 0.0 0.00 0.00 0.00 60 1011.6
20260507080007 59 11 0.0 0.0 0.00 0.00 0.00 59 1011.9
20260507074507 59 11 0.0 0.0 0.00 0.00 0.00 59 1011.7
20260507071516 59 5 0.0 0.0 0.00 0.00 0.00 61 1011.4
20260507070008 59 5 0.0 0.0 0.00 0.00 0.00 62 1011.5
20260507061603 59 5 0.0 0.0 0.00 0.00 0.00 66 1011.2
20260507054503 59 5 0.0 0.0 0.00 0.00 0.00 67 1010.9
20260507053003 60 5 0.0 0.0 0.00 0.00 0.00 65 1011.0
20260507051508 60 5 0.0 0.0 0.00 0.00 0.00 64 1010.7
20260507044604 60 5 0.0 0.0 0.00 0.00 0.00 63 1011.5
20260507043003 60 16 0.0 0.0 0.00 0.00 0.00 63 1011.5
20260507041602 60 5 0.0 0.0 0.00 0.00 0.00 62 1011.5
20260507034502 60 15 0.0 0.0 0.00 0.00 0.00 59 1011.0
20260507033003 60 5 0.0 0.0 0.00 0.00 0.00 60 1010.9
20260507031503 60 5 0.0 0.0 0.00 0.00 0.00 62 1010.7
20260507030006 60 360 0.0 0.0 0.00 0.00 0.00 63 1010.6
20260507024632 60 360 0.0 0.0 0.00 0.00 0.00 64 1010.7
20260507023004 60 355 0.0 0.0 0.00 0.00 0.00 65 1010.5
20260507021603 60 5 0.0 0.0 0.00 0.00 0.00 65 1010.4
20260507020004 60 360 0.0 0.0 0.00 0.00 0.00 65 1010.2
20260507014508 60 5 0.0 0.0 0.00 0.00 0.00 66 1009.8
20260507013103 60 9 0.0 0.0 0.00 0.00 0.00 67 1009.7
20260507011604 60 360 0.0 0.0 0.00 0.00 0.00 68 1009.3
20260507004508 61 5 0.0 0.0 0.00 0.00 0.00 72 1009.0
20260507003002 61 9 0.0 0.0 0.00 0.00 0.00 75 1008.8
20260507001603 62 12 0.0 0.0 0.00 0.00 0.00 76 1008.8
20260506234614 63 9 0.0 0.0 0.00 0.00 0.00 80 1008.4
20260506233105 63 347 0.0 0.0 0.00 0.00 0.00 80 1008.0
20260506231517 65 5 0.0 0.0 0.00 0.00 0.00 80 1007.6
20260506230103 66 355 0.0 0.0 0.00 0.00 0.00 80 1007.6
20260506224602 68 340 0.0 0.0 0.00 0.00 0.00 78 1007.2
20260506221507 69 355 0.0 0.0 0.00 0.00 0.00 78 1007.1
20260506220007 69 355 0.0 0.0 0.00 0.00 0.00 77 1007.1
20260506214507 72 9 0.0 0.0 0.00 0.00 0.00 73 1006.5
20260506210008 79 9 0.0 0.0 0.00 0.00 0.00 72 1006.0
20260506204503 78 17 0.0 0.0 0.00 0.00 0.00 74 1006.2
20260506203002 78 15 0.0 0.0 0.00 0.00 0.00 75 1006.4
20260506200104 77 34 0.0 0.0 0.00 0.00 0.00 76 1006.5
20260506194503 77 36 0.0 0.0 0.00 0.00 0.00 76 1006.6
20260506193002 78 47 0.0 0.0 0.00 0.00 0.00 74 1006.7
20260506191508 79 47 0.0 0.0 0.00 0.00 0.00 73 1006.7
20260506184609 76 45 0.0 0.0 0.00 0.00 0.00 74 1006.8
20260506183106 75 44 0.0 0.0 0.00 0.00 0.00 74 1007.2
20260506181509 75 44 0.0 0.0 0.00 0.00 0.00 74 1007.4
20260506174603 76 42 0.0 0.0 0.00 0.00 0.00 69 1007.3
20260506173110 73 36 0.0 0.0 0.00 0.00 0.00 45 1007.9
20260506164603 71 12 0.0 0.0 0.00 0.00 0.00 68 1007.7